Probability
0 0 0 0 0 0 0 0 0 0 0 0 0 0 0 0 0 0 0 0 0 0 0 0 0 0 0 0 0 0 0 0 0 0 0 0 0 0 0 0 0 0 0 0
0 0 0 0 0 0 0 0 0 0 0 0 0 0 0 0 0 0 0 0 0 0 0 0 0 0 0 0 0 0 0 0 0 0 0 0 0 0 0 0 0 0 0 0
0 0 0 0 0 0 0 0 0 0 0 0 0 0 0 0 0 0 0 0 0 0 0 0 0 0 0 0 0 0 0 0 0 0 0 0 0 0 0 0 0 0 0 0
0 0 0 0 0 0 0 0 0 0 0 0 0 0 0 0 0 0 0 0 0 0 0 0 0 0 0 0 0 0 0 0 0 0 0 0 0 0 0 0 0 0 0 0
0 0 0 0 0 0 0 0 0 0 0 0 0 0 0 0 0 0 0 0 0 0 0 0 0 0 0 0 0 0 0 0 0 0 0 0 0 0 0 0 0 0 0 0
0 0 0 0 0 0 0 0 0 0 0 0 0 0 0 0 0 0 0 0 0 0 0 0 0 0 0 0 0 0 0 0 0 0 0 1 1 1 0 0 0 0 0 0
0 0 0 0 0 0 0 0 0 0 0 0 0 0 0 0 0 0 0 0 0 0 0 0 0 0 0 0 0 0 0 0 0 0 0 1 2 2 1 1 1 0 0 0
0 0 0 0 0 0 0 0 0 0 0 0 0 0 0 0 0 0 0 0 0 0 0 0 0 0 0 0 0 0 0 0 0 0 0 1 2 2 2 2 2 1 0 0
0 0 0 0 0 0 0 0 0 0 0 0 0 0 0 0 0 0 0 0 0 0 0 0 0 0 0 0 0 0 0 0 0 0 0 0 1 1 1 1 2 1 0 0
0 0 0 0 0 0 0 0 0 0 0 0 0 0 0 0 0 0 0 0 0 0 0 0 0 0 0 0 0 0 0 0 0 0 0 0 0 0 0 0 1 1 0 0
0 0 0 0 0 0 0 0 0 0 0 0 0 0 0 0 0 0 0 0 0 0 0 0 0 0 0 0 0 0 0 0 0 0 0 0 0 0 0 0 0 0 0 0
0 0 0 0 0 0 0 0 0 0 0 0 0 0 0 0 0 0 0 0 0 0 0 0 0 0 0 0 0 0 0 0 0 0 0 0 0 0 0 0 0 0 0 0
0 0 0 0 0 0 0 0 0 0 0 0 0 0 0 0 0 0 0 0 0 0 0 0 0 0 0 0 0 0 0 0 0 0 0 0 0 0 0 0 0 0 0 0
0 0 0 0 0 0 0 0 0 0 0 0 0 0 0 0 0 0 0 0 0 0 0 0 0 0 0 0 0 0 0 0 0 0 0 0 0 0 0 0 0 0 0 0
0 0 0 0 0 0 0 0 0 0 0 0 0 0 0 0 0 0 0 0 0 0 0 0 0 0 0 0 0 0 0 0 0 0 0 0 0 0 0 0 0 0 0 0
0 0 0 0 0 0 0 0 0 0 0 0 0 0 0 0 0 0 0 0 0 0 0 0 0 0 0 0 0 0 0 0 0 0 0 0 0 0 0 0 0 0 0 0
0 0 0 0 0 0 0 0 0 0 0 0 0 0 0 0 0 0 0 0 0 0 0 0 0 0 0 0 0 0 0 0 0 0 0 0 0 0 0 0 0 0 0 0
0 0 0 0 0 0 0 0 0 0 0 0 0 0 0 0 0 0 0 0 0 0 0 0 0 0 0 0 0 0 0 0 0 0 0 0 0 0 0 0 0 0 0 0
0 0 0 0 0 0 0 0 0 0 0 0 0 0 0 0 0 0 0 0 0 0 0 0 0 0 0 0 0 0 0 0 0 0 0 0 0 0 0 0 0 0 0 0
0 0 0 0 0 0 0 0 0 0 0 0 0 0 0 0 0 0 0 0 0 0 0 0 0 0 0 0 0 0 0 0 0 0 0 0 0 0 0 0 0 0 0 0
0 0 0 0 0 0 0 0 0 0 0 0 0 0 0 0 0 0 0 0 0 0 0 0 0 0 0 0 0 0 0 0 0 0 0 0 0 0 0 0 0 0 0 0
0 0 0 0 0 0 0 0 0 0 0 0 0 0 0 0 0 0 0 0 0 0 0 0 0 0 0 0 0 0 0 0 0 0 0 0 0 0 0 0 0 0 0 0
0 0 0 0 0 0 0 0 0 0 0 0 0 0 0 0 0 0 0 0 0 0 0 0 0 0 0 0 0 0 0 0 0 0 0 0 0 0 0 0 0 0 0 0
0 0 0 0 0 0 0 0 0 0 0 0 0 0 0 0 0 0 0 0 0 0 0 0 0 0 0 0 0 0 0 0 0 0 0 0 0 0 0 0 0 0 0 0
0 0 0 0 0 0 0 0 0 0 0 0 0 0 0 0 0 0 0 0 0 0 0 0 0 0 0 0 0 0 0 0 0 0 0 0 0 0 0 0 0 0 0 0
0 0 0 0 0 0 0 0 0 0 0 0 0 0 0 0 0 0 0 0 0 0 0 0 0 0 0 0 0 0 0 0 0 0 0 0 0 0 0 0 0 0 0 0
Wind_Speed
2 2 3 3 4 4 3 4 5 3 1 1 5 8 9 5 5 6 5 4 4 5 4 4 5 5 5 5 5 5 4 4 4 3 3 3 3 2 2 2 2 2 1 2
2 4 3 3 2 3 4 6 6 2 1 2 5 9 9 7 7 7 6 5 5 4 3 4 4 5 5 5 5 5 5 4 4 3 3 2 3 3 2 2 2 2 2 2
4 0 1 3 3 4 5 5 4 3 4 4 4 7 6 5 6 5 5 4 3 3 4 4 4 5 5 5 6 6 6 5 5 4 3 2 2 2 2 2 2 2 2 2
3 2 1 1 3 4 4 2 3 3 3 3 2 5 5 4 4 5 5 4 4 3 3 4 4 4 5 5 5 5 5 5 5 5 4 5 3 3 3 3 2 2 2 2
2 1 1 3 2 2 2 2 2 3 3 4 3 4 7 3 5 5 4 4 3 3 4 4 4 4 4 4 4 5 5 5 4 5 5 5 3 2 2 3 4 3 2 2
2 0 1 1 1 1 1 1 2 2 1 4 5 5 7 3 4 3 2 3 3 3 3 3 3 3 3 3 4 4 5 5 4 5 5 5 5 4 3 4 4 3 2 2
3 3 2 0 0 1 2 1 0 1 2 6 3 4 8 3 1 1 2 2 2 3 3 3 3 4 4 4 4 4 5 5 4 5 5 5 5 5 5 4 4 4 2 2
3 3 5 3 3 3 4 3 3 3 3 3 2 6 6 1 1 1 1 2 2 2 3 3 3 3 3 4 4 5 5 4 5 5 5 4 4 3 3 3 3 3 3 3
3 2 2 2 1 1 3 4 2 1 1 3 5 4 3 1 1 1 1 1 1 2 2 3 3 2 3 4 4 5 5 4 5 5 4 4 4 3 3 3 3 3 2 2
2 1 1 2 1 3 2 1 1 2 2 4 5 5 4 4 4 3 3 3 2 2 2 2 2 2 3 3 3 3 4 4 4 4 4 4 4 4 4 3 3 3 3 3
3 2 1 2 5 5 4 3 3 2 3 3 4 5 1 4 4 3 2 2 3 3 3 3 2 2 2 2 3 3 4 4 4 4 4 4 4 4 4 3 3 3 3 3
3 2 3 4 2 1 3 5 5 4 4 3 3 7 1 1 2 2 2 1 2 2 3 2 3 3 3 3 3 3 4 4 4 4 4 4 4 3 4 4 3 3 4 3
2 2 1 1 1 2 4 4 5 3 2 3 5 8 1 1 1 1 2 1 1 1 2 2 2 3 3 3 3 4 4 4 4 4 4 4 4 4 4 4 3 3 3 3
1 3 5 7 3 3 5 6 6 5 5 6 10 10 6 4 3 2 2 2 2 2 2 2 2 2 2 2 3 3 3 4 4 4 4 4 4 4 4 3 3 3 4 4
2 3 5 7 6 4 6 8 10 11 11 9 10 11 11 8 6 4 2 2 2 2 2 3 3 3 2 2 2 3 3 3 4 4 4 5 4 3 3 3 3 3 3 4
2 3 2 5 5 5 9 10 11 13 12 13 13 15 8 6 4 4 3 2 2 2 2 2 2 2 3 3 3 3 3 3 4 4 5 4 3 3 3 4 3 3 3 3
4 4 3 5 2 3 12 13 12 10 10 9 14 14 6 6 5 5 4 3 3 3 3 3 3 3 3 3 3 4 4 3 4 4 4 4 4 4 4 3 4 4 4 3
5 5 3 3 1 9 9 4 9 11 11 11 10 8 5 5 4 4 3 3 3 2 2 3 2 3 2 2 2 2 3 3 4 3 3 3 4 4 3 4 4 4 3 3
6 6 4 3 6 10 7 4 6 7 10 10 12 10 7 3 4 4 2 2 2 2 2 2 2 2 1 1 1 1 2 3 3 3 3 3 4 4 3 4 4 3 3 3
4 5 5 5 6 9 6 3 3 3 8 5 7 8 6 2 3 4 1 1 1 1 1 1 0 1 1 1 1 2 2 2 3 3 3 3 3 4 4 4 3 2 2 3
5 6 9 9 8 10 4 2 4 5 7 2 3 3 3 4 4 2 1 1 1 2 2 2 2 2 1 1 2 2 2 2 2 1 1 1 2 3 3 3 2 2 2 2
10 9 9 7 9 11 3 6 7 6 1 1 1 1 1 2 1 0 0 0 1 1 2 2 2 1 1 2 2 2 1 1 0 1 1 1 2 2 2 3 2 2 3 2
9 9 7 10 9 3 5 6 4 2 2 1 1 1 2 2 2 1 1 0 0 1 1 1 1 1 2 2 2 2 1 0 1 1 1 1 1 1 2 3 3 2 2 3
5 3 3 5 7 5 4 4 3 3 3 2 2 2 2 3 2 2 2 1 1 0 0 1 1 1 1 1 1 0 0 1 1 1 1 1 1 1 1 1 2 3 3 3
6 4 4 7 8 5 5 6 5 4 3 2 2 3 3 3 3 3 2 2 2 1 0 1 1 1 1 1 1 1 1 1 1 1 1 1 2 2 2 2 2 3 4 5
7 8 9 10 8 6 6 3 3 4 4 4 4 4 3 4 4 3 3 2 2 1 1 1 1 1 1 1 1 1 0 1 2 1 1 1 2 2 2 2 2 4 4 5
Wind_Direction
172 218 216 213 221 260 295 285 282 282 24 225 245 260 268 256 244 248 246 235 228 231 216 184 168 161 164 170 168 165 168 176 161 167 181 173 171 159 148 143 133 136 137 138
183 235 248 277 259 245 255 272 279 303 350 277 272 271 268 255 244 238 239 240 228 219 192 177 166 160 170 173 172 173 177 177 170 174 179 174 160 163 157 136 128 136 137 136
215 296 253 236 254 252 249 246 269 287 303 254 278 284 250 246 235 234 234 234 231 212 191 181 174 172 173 180 181 182 181 179 178 168 155 134 128 119 139 151 159 160 148 142
240 262 281 229 240 233 250 260 259 263 288 271 229 287 269 246 243 230 224 221 223 204 186 175 174 176 182 186 181 179 178 176 176 169 166 158 169 179 181 169 163 151 145 144
227 160 228 233 250 239 246 305 266 258 261 280 241 255 276 237 253 244 220 212 214 193 183 183 181 179 175 173 174 175 171 174 173 169 169 169 176 182 161 149 148 151 154 155
235 42 296 292 323 238 237 279 264 252 256 263 226 217 273 230 238 244 221 203 191 181 167 171 163 157 161 155 156 166 170 176 171 169 169 176 176 169 161 167 162 164 161 166
220 198 185 200 189 193 218 163 291 254 224 247 207 211 249 247 245 232 221 189 157 150 149 157 156 162 166 160 158 163 167 171 167 168 174 180 180 175 178 177 169 163 163 173
213 224 184 195 196 190 210 195 184 218 240 272 233 229 246 219 156 97 108 110 122 144 153 154 158 165 170 167 165 169 171 173 169 171 177 177 176 177 183 178 164 166 170 172
226 221 110 155 282 228 195 217 233 219 284 282 252 240 261 249 224 198 170 159 174 163 156 154 152 160 168 173 176 178 174 173 172 172 170 172 174 175 177 171 162 159 156 152
265 231 177 145 203 257 268 266 157 184 215 257 263 241 237 218 218 208 191 191 187 168 151 145 154 170 174 175 170 166 169 171 166 166 172 174 176 183 178 166 166 160 156 147
249 189 190 177 203 195 180 205 205 205 223 221 263 260 250 192 179 170 185 183 169 169 170 171 171 166 159 156 161 168 168 164 165 170 171 173 174 175 174 174 173 167 158 152
213 201 228 216 188 285 212 206 187 190 236 235 256 267 357 85 125 148 172 173 152 157 167 173 172 161 159 169 172 174 173 171 173 172 168 172 168 168 177 182 179 169 166 167
175 182 209 266 243 234 236 224 214 208 222 227 233 260 198 122 125 166 182 188 181 171 176 171 167 176 181 182 180 178 177 175 170 165 164 167 171 175 187 188 179 173 174 173
187 209 209 220 231 196 221 224 213 201 216 236 236 254 265 263 255 244 212 206 200 197 192 187 194 199 193 191 186 181 179 172 169 168 169 177 186 187 189 186 182 182 181 180
185 229 242 263 277 266 248 233 213 216 223 229 248 255 261 264 265 267 255 244 230 219 205 204 204 203 196 194 197 191 182 173 169 172 178 188 187 182 180 183 186 184 185 188
201 227 252 270 256 260 265 248 226 227 234 243 261 268 265 279 289 286 267 247 251 254 237 225 211 207 207 206 206 200 190 181 172 180 189 184 178 182 187 190 187 187 189 187
192 191 216 257 268 300 259 229 214 219 218 214 237 249 266 275 270 264 261 245 247 254 252 234 222 220 222 219 206 202 195 175 173 182 182 175 177 186 193 192 190 196 195 188
195 197 211 247 258 244 246 186 200 219 231 221 239 254 249 255 269 266 257 244 245 245 249 242 228 220 215 205 208 194 168 166 175 181 180 178 182 192 190 188 198 200 194 195
203 190 201 206 240 265 268 213 192 213 248 223 234 251 258 265 300 278 257 226 238 251 259 252 226 210 188 188 192 165 165 164 172 190 197 195 190 190 190 199 204 198 192 201
215 202 206 212 227 241 247 189 178 175 259 228 217 238 244 206 248 259 330 26 342 343 345 347 83 108 126 166 159 152 167 168 194 208 212 202 189 189 198 204 203 197 195 205
186 205 216 221 235 255 249 166 131 188 246 226 205 226 207 204 224 236 59 41 32 28 25 42 79 95 109 122 133 149 159 209 227 215 194 190 196 198 195 191 189 181 181 183
185 189 206 206 225 246 190 151 187 218 230 137 169 201 207 226 253 291 33 53 72 59 44 54 77 70 54 89 124 145 215 256 133 140 175 203 204 196 178 171 175 171 171 182
204 199 196 203 219 235 179 196 209 185 191 202 203 226 211 232 258 283 276 236 144 95 61 51 82 71 38 51 110 174 258 35 93 133 189 213 203 189 175 174 175 173 180 194
231 222 223 249 256 250 232 236 236 224 225 233 221 220 212 230 245 258 251 232 228 201 92 67 89 90 358 3 37 208 10 88 130 170 201 185 184 196 199 197 189 191 200 207
214 187 220 248 262 273 251 229 231 235 241 251 251 237 230 231 242 238 242 231 218 212 153 131 166 209 258 320 331 1 65 124 152 181 201 197 197 201 208 216 216 214 217 212
208 202 207 234 230 219 244 224 198 212 230 232 235 252 243 220 230 232 233 227 207 201 184 181 202 217 245 261 280 299 218 166 171 196 214 213 205 202 204 212 250 248 245 246